Home > Weather > Hay River > Past weeks

Flag for Canada Past Weather in Hay River, Northwest Territories, Canada — Yesterday and Last 2 Weeks

Now
52 °F

Partly sunny.


Feels Like: 49 °F
Forecast: 49 / 54 °F
Wind: 8 mph from North

Location: Hay River

Current Time: Aug 27, 2016 at 8:37:20 PM

Latest Report: Aug 27, 2016 at 8:00 PM


Visibility: 15 mi

Pressure: 30.00 "Hg

Humidity: 77%

Dew Point: 45 °F

Location of Hay RiverLocation

Past Weather in Hay River — Graph

°F

Hay River Temperature Yesterday

Maximum temperature yesterday: 70 °F (at 2:00 PM)
Minimum temperature yesterday: 48 °F (at 6:00 AM)
Average temperature yesterday: 58 °F

High & Low Weather Summary for the Past Weeks

 TemperatureHumidityPressure
High81 °F (Aug 15, 2:00 PM)100% (Aug 13, 2:00 AM)30.29 "Hg (Aug 13, 2:00 AM)
Low46 °F (Aug 18, 7:00 AM)30% (Aug 15, 4:00 PM)29.65 "Hg (Aug 21, 3:00 AM)
Average62 °F76%29.92 "Hg
* Reported Aug 12 7:00 PM — Aug 27 7:00 PM, Hay River, Weather by CustomWeather, © 2016

Note: Actual official high and low records may vary slightly from our data, if they occured in-between our weather recording intervals... More about our weather records

Advertising

Hay River Weather History for the Previous 24 Hours

Scroll right to see more
 ConditionsComfort  
Time TempWeatherWind HumidityBarometerVisibility
7:00 PM
Sat, Aug 27
54 °FBroken clouds.7 mph72%29.99 "Hg15 mi
6:00 PM54 °FBroken clouds.10 mph77%29.98 "Hg15 mi
5:00 PM55 °FMore clouds than sun.8 mph72%29.97 "Hg15 mi
4:00 PM54 °FOvercast.8 mph72%29.96 "Hg15 mi
3:00 PM55 °FOvercast.8 mph63%29.95 "Hg15 mi
2:00 PM55 °FOvercast.10 mph63%29.93 "Hg15 mi
1:00 PM55 °FOvercast.8 mph63%29.91 "Hg15 mi
12:00 PM55 °FOvercast.9 mph63%29.90 "Hg15 mi
11:00 AM57 °FMore clouds than sun.13 mph63%29.89 "Hg15 mi
10:00 AM57 °FBroken clouds.12 mph63%29.88 "Hg15 mi
9:00 AM57 °FPartly sunny.9 mph72%29.87 "Hg15 mi
8:00 AM55 °FLight rain. More clouds than sun.7 mph72%29.86 "Hg15 mi
7:00 AM55 °FLight rain. Mostly cloudy.9 mph77%29.85 "Hg15 mi
6:00 AM55 °FLight rain. Overcast.7 mph88%29.85 "Hg15 mi
5:00 AM55 °FLight rain. Mostly cloudy.9 mph88%29.83 "Hg15 mi
4:00 AM55 °FLight rain. Overcast.7 mph88%29.82 "Hg15 mi
3:00 AM55 °FLight rain. Overcast.8 mph82%29.81 "Hg15 mi
2:00 AM55 °FLight rain. Mostly cloudy.13 mph88%29.80 "Hg15 mi
1:00 AM57 °FLight rain. Mostly cloudy.10 mph82%29.79 "Hg15 mi
12:00 AM59 °FLight rain. Mostly cloudy.7 mph82%29.77 "Hg15 mi
11:00 PM
Fri, Aug 26
61 °FLight rain. Mostly cloudy.14 mph83%29.75 "Hg15 mi
10:00 PM59 °FLight rain. Mostly cloudy.8 mph94%29.76 "Hg15 mi
9:00 PM57 °FLight rain. More clouds than sun.3 mph100%29.76 "Hg15 mi
8:00 PM57 °FThunderstorms. More clouds than sun.No wind94%29.75 "Hg6 mi
Weather by CustomWeather, © 2016

See weather overviewHow to use our weather pages